User: anonymous
Location: CNYAC Observatory
(43.2150°N, 74.9500°W)
Time: 04:44:14
(UTC-04:00)
Language:

Cosmos 1300 Rocket - Orbit

View from above orbital plane
View from above orbital plane
View from above satellite
View from above satellite

Ground track
Ground track

The orbit data is extracted from the following two-line orbital elements,

1 12786U 81082B   14292.73040404  .00000579  00000-0  66285-4 0   198
2 12786 082.4889 163.0989 0017080 216.5071 143.4982 14.84207844790682
Epoch (UTC): 19 October 2014 17:31:46
Eccentricity: 0.0017080
inclination: 82.4889°
perigee height: 604 km
apogee height: 628 km
right ascension of ascending node: 163.0989°
argument of perigee: 216.5071°
revolutions per day: 14.84207844
mean anomaly at epoch: 143.4982°
orbit number at epoch: 79068

The dashed part of the orbit path shows where the satellite is in the earth's shadow,  

DLR